When you browse on this site, cookies collect data to enhance your experience and personalize the content and advertising you see.
Visit our Privacy Policy to learn more. By continuing to use the site, you agree to this use of cookies and data.
  • In Österreich
  • Länderverzeichnis
  • Für 7 Tage
  • Wassertemperatur
  • Wetterkarte
  • News
  • Widgets
  • user-avatar
    Anmelden

    Stündliche Wetter Seli

    Heute, 26 Januar, Sonntag

    Zeit Temperatur Niederschläge Wind Luftdruck Luftfeuchtigkeit
    00:00 +10°C° 0 mm 2 m/S 758 mmHg 79%
    01:00 +10°C° 0 mm 2 m/S 758 mmHg 79%
    02:00 +10°C° 0 mm 2 m/S 757 mmHg 78%
    03:00 +10°C° 0 mm 2 m/S 757 mmHg 78%
    04:00 +10°C° 0 mm 2 m/S 757 mmHg 78%
    05:00 +10°C° 0 mm 2 m/S 757 mmHg 78%
    06:00 +11°C° 0 mm 1 m/S 757 mmHg 79%
    07:00 +11°C° 0 mm 1 m/S 757 mmHg 80%
    08:00 +11°C° 0 mm 1 m/S 757 mmHg 81%
    09:00 +12°C° 0 mm 1 m/S 757 mmHg 77%
    10:00 +14°C° 0 mm 1 m/S 757 mmHg 73%
    11:00 +16°C° 0 mm 1 m/S 758 mmHg 68%
    12:00 +16°C° 0 mm 1 m/S 757 mmHg 68%
    13:00 +16°C° 0 mm 1 m/S 757 mmHg 68%
    14:00 +16°C° 0 mm 1 m/S 756 mmHg 67%
    15:00 +16°C° 0 mm 1 m/S 756 mmHg 70%
    16:00 +15°C° 0 mm 1 m/S 756 mmHg 72%
    17:00 +15°C° 0 mm 1 m/S 756 mmHg 74%
    18:00 +14°C° 0 mm 1 m/S 756 mmHg 73%
    19:00 +14°C° 0 mm 1 m/S 756 mmHg 71%
    20:00 +13°C° 0 mm 2 m/S 756 mmHg 70%
    21:00 +13°C° 0 mm 1 m/S 756 mmHg 69%
    22:00 +13°C° 0 mm 1 m/S 755 mmHg 69%
    23:00 +13°C° 0 mm 1 m/S 755 mmHg 69%

    Morgen, 27 Januar, Montag

    Zeit Temperatur Niederschläge Wind Luftdruck Luftfeuchtigkeit
    00:00 +13°C° 0 mm 2 m/S 755 mmHg 68%
    01:00 +13°C° 0 mm 2 m/S 755 mmHg 67%
    02:00 +12°C° 0 mm 3 m/S 755 mmHg 66%
    03:00 +13°C° 0 mm 2 m/S 754 mmHg 69%
    04:00 +13°C° 0 mm 2 m/S 753 mmHg 72%
    05:00 +12°C° 0 mm 2 m/S 753 mmHg 75%
    06:00 +13°C° 0 mm 2 m/S 753 mmHg 74%
    07:00 +13°C° 0 mm 2 m/S 753 mmHg 74%
    08:00 +12°C° 0 mm 3 m/S 753 mmHg 74%
    09:00 +14°C° 0 mm 2 m/S 753 mmHg 70%
    10:00 +15°C° 0 mm 2 m/S 753 mmHg 66%
    11:00 +16°C° 0 mm 2 m/S 753 mmHg 62%
    12:00 +16°C° 0 mm 3 m/S 752 mmHg 62%
    13:00 +17°C° 0 mm 3 m/S 752 mmHg 61%
    14:00 +17°C° 0 mm 3 m/S 751 mmHg 60%
    15:00 +16°C° 0 mm 3 m/S 751 mmHg 62%
    16:00 +16°C° 0 mm 3 m/S 751 mmHg 64%
    17:00 +14°C° 0 mm 3 m/S 750 mmHg 65%
    18:00 +14°C° 0 mm 3 m/S 750 mmHg 68%
    19:00 +13°C° 0 mm 3 m/S 750 mmHg 71%
    20:00 +13°C° 0 mm 4 m/S 750 mmHg 73%
    21:00 +13°C° 0 mm 4 m/S 750 mmHg 75%
    22:00 +12°C° 0 mm 4 m/S 750 mmHg 78%
    23:00 +12°C° 0 mm 4 m/S 750 mmHg 80%

    übermorgen, 28 Januar, Dienstag

    Zeit Temperatur Niederschläge Wind Luftdruck Luftfeuchtigkeit
    00:00 +12°C° 0.1 mm 5 m/S 750 mmHg 82%
    01:00 +12°C° 0.1 mm 5 m/S 750 mmHg 84%
    02:00 +12°C° 0.1 mm 5 m/S 749 mmHg 86%
    03:00 +10°C° 0 mm 6 m/S 749 mmHg 85%
    04:00 +10°C° 0 mm 6 m/S 749 mmHg 85%
    05:00 +10°C° 0 mm 7 m/S 749 mmHg 84%
    06:00 +10°C° 0 mm 7 m/S 749 mmHg 83%
    07:00 +10°C° 0 mm 7 m/S 750 mmHg 81%
    08:00 +10°C° 0 mm 7 m/S 750 mmHg 80%
    09:00 +11°C° 0 mm 7 m/S 750 mmHg 74%
    10:00 +14°C° 0 mm 7 m/S 750 mmHg 69%
    11:00 +15°C° 0 mm 7 m/S 751 mmHg 63%
    12:00 +15°C° 0 mm 7 m/S 750 mmHg 63%
    13:00 +15°C° 0 mm 7 m/S 750 mmHg 62%
    14:00 +16°C° 0 mm 8 m/S 750 mmHg 62%
    15:00 +15°C° 0 mm 8 m/S 750 mmHg 65%
    16:00 +15°C° 0 mm 8 m/S 750 mmHg 67%
    17:00 +15°C° 0 mm 8 m/S 750 mmHg 70%
    18:00 +14°C° 0 mm 7 m/S 750 mmHg 72%
    19:00 +12°C° 0 mm 7 m/S 750 mmHg 74%
    20:00 +11°C° 0 mm 6 m/S 751 mmHg 77%
    21:00 +11°C° 0 mm 6 m/S 751 mmHg 76%
    22:00 +10°C° 0 mm 6 m/S 751 mmHg 76%
    23:00 +10°C° 0 mm 6 m/S 751 mmHg 75%

    29 Januar, Mittwoch

    Zeit Temperatur Niederschläge Wind Luftdruck Luftfeuchtigkeit
    00:00 +10°C° 0 mm 6 m/S 751 mmHg 76%
    01:00 +10°C° 0 mm 6 m/S 750 mmHg 77%
    02:00 +10°C° 0 mm 6 m/S 750 mmHg 78%
    03:00 +10°C° 0 mm 6 m/S 750 mmHg 80%
    04:00 +10°C° 0 mm 6 m/S 750 mmHg 81%
    05:00 +10°C° 0 mm 6 m/S 750 mmHg 82%
    06:00 +10°C° 0 mm 6 m/S 750 mmHg 82%
    07:00 +10°C° 0 mm 6 m/S 750 mmHg 81%
    08:00 +10°C° 0 mm 6 m/S 750 mmHg 81%
    09:00 +13°C° 0 mm 6 m/S 751 mmHg 76%
    10:00 +14°C° 0 mm 6 m/S 751 mmHg 72%
    11:00 +15°C° 0 mm 6 m/S 751 mmHg 68%
    12:00 +15°C° 0 mm 6 m/S 750 mmHg 67%
    13:00 +16°C° 0 mm 6 m/S 750 mmHg 67%
    14:00 +16°C° 0 mm 7 m/S 750 mmHg 66%
    15:00 +16°C° 0 mm 7 m/S 750 mmHg 69%
    16:00 +15°C° 0 mm 7 m/S 749 mmHg 72%
    17:00 +15°C° 0 mm 7 m/S 749 mmHg 76%
    18:00 +14°C° 0 mm 7 m/S 750 mmHg 79%
    19:00 +14°C° 0 mm 6 m/S 750 mmHg 82%
    20:00 +13°C° 0 mm 6 m/S 750 mmHg 85%
    21:00 +13°C° 0 mm 6 m/S 750 mmHg 85%
    22:00 +13°C° 0 mm 6 m/S 750 mmHg 85%
    23:00 +11°C° 0 mm 6 m/S 750 mmHg 85%

    30 Januar, Donnerstag

    Zeit Temperatur Niederschläge Wind Luftdruck Luftfeuchtigkeit
    00:00 +11°C° 0 mm 6 m/S 750 mmHg 85%
    01:00 +11°C° 0 mm 6 m/S 749 mmHg 85%
    02:00 +13°C° 0 mm 6 m/S 749 mmHg 85%
    03:00 +11°C° 0 mm 6 m/S 749 mmHg 86%
    04:00 +11°C° 0 mm 6 m/S 749 mmHg 86%
    05:00 +11°C° 0 mm 6 m/S 749 mmHg 87%
    06:00 +11°C° 0.1 mm 6 m/S 749 mmHg 87%
    07:00 +13°C° 0.1 mm 5 m/S 749 mmHg 87%
    08:00 +13°C° 0.1 mm 5 m/S 749 mmHg 87%
    09:00 +13°C° 0.3 mm 6 m/S 749 mmHg 84%
    10:00 +14°C° 0.3 mm 6 m/S 749 mmHg 82%
    11:00 +15°C° 0.3 mm 6 m/S 749 mmHg 79%
    12:00 +15°C° 0.4 mm 7 m/S 748 mmHg 77%
    13:00 +15°C° 0.4 mm 8 m/S 748 mmHg 76%
    14:00 +15°C° 0.4 mm 8 m/S 747 mmHg 75%
    15:00 +15°C° 0.1 mm 8 m/S 747 mmHg 74%
    16:00 +15°C° 0.1 mm 9 m/S 747 mmHg 73%
    17:00 +15°C° 0.1 mm 9 m/S 747 mmHg 72%
    18:00 +13°C° 0 mm 9 m/S 747 mmHg 72%
    19:00 +12°C° 0 mm 9 m/S 748 mmHg 73%
    20:00 +11°C° 0 mm 9 m/S 748 mmHg 73%
    21:00 +10°C° 0.2 mm 9 m/S 749 mmHg 77%
    22:00 +10°C° 0.2 mm 9 m/S 750 mmHg 81%
    23:00 +8°C° 0.2 mm 9 m/S 750 mmHg 85%

    31 Januar, Freitag

    Zeit Temperatur Niederschläge Wind Luftdruck Luftfeuchtigkeit
    00:00 +8°C° 0.2 mm 9 m/S 751 mmHg 84%
    01:00 +7°C° 0.2 mm 9 m/S 751 mmHg 82%
    02:00 +7°C° 0.2 mm 8 m/S 751 mmHg 80%
    03:00 +8°C° 0.1 mm 7 m/S 752 mmHg 79%
    04:00 +8°C° 0.1 mm 7 m/S 752 mmHg 79%
    05:00 +8°C° 0.1 mm 6 m/S 752 mmHg 78%
    06:00 +8°C° 0 mm 5 m/S 752 mmHg 77%
    07:00 +7°C° 0 mm 4 m/S 753 mmHg 75%
    08:00 +7°C° 0 mm 4 m/S 753 mmHg 74%
    09:00 +9°C° 0 mm 3 m/S 753 mmHg 67%
    10:00 +10°C° 0 mm 2 m/S 754 mmHg 60%
    11:00 +12°C° 0 mm 2 m/S 754 mmHg 52%
    12:00 +13°C° 0 mm 2 m/S 753 mmHg 48%
    13:00 +13°C° 0 mm 1 m/S 753 mmHg 44%
    14:00 +14°C° 0 mm 1 m/S 753 mmHg 40%
    15:00 +13°C° 0 mm 2 m/S 753 mmHg 45%
    16:00 +13°C° 0 mm 2 m/S 752 mmHg 49%
    17:00 +11°C° 0 mm 3 m/S 752 mmHg 53%
    18:00 +11°C° 0 mm 3 m/S 752 mmHg 56%
    19:00 +10°C° 0 mm 3 m/S 752 mmHg 58%
    20:00 +9°C° 0 mm 3 m/S 752 mmHg 61%
    21:00 +8°C° 0 mm 4 m/S 752 mmHg 61%
    22:00 +8°C° 0 mm 4 m/S 752 mmHg 61%
    23:00 +8°C° 0 mm 4 m/S 752 mmHg 60%
    Mehr zeigen